Torna al catalogo

RASCOM QAF 1R

AttivoComunicazioniGEO
NORAD 36831·PAYLOAD·🇨🇦 Canada

Lanciato Aug 4, 2010 da Guiana Space Centre

Loading…

TLE

AggiornatoSource: Space-Track

Epoca: Sep 14, 2026, 13:49 UTC

1 36831U 10037B   26257.57570769  .00000011  00000-0  00000-0 0  9992
2 36831   0.0184 139.1385 0005131  34.6293  29.9404  1.00271701 59206

Traccia RASCOM QAF 1R in tempo reale con AllMySat

Download on the App Store